Location: Dayton
(39.7590°N, 84.1920°W)
Time: 09:33:35
(UTC-04:00)

ATLAS CENTAUR R/B - Visible Passes

Search period start: 16 August 2017 00:00
Search period end: 26 August 2017 00:00
Orbit: 222 x 7391 km, 57.3° (Epoch: 13 August)

Date Brightness Start Highest point End Pass type
(mag) Time Alt. Az. Time Alt. Az. Time Alt. Az.
16 Aug 4.2 02:30:48 10° NW 02:35:36 31° NNW 02:35:36 31° NNW visible
16 Aug 5.8 21:50:35 10° W 22:15:26 38° NNW 22:24:19 10° NE visible
17 Aug 4.3 01:08:39 10° NW 01:17:53 32° NNE 01:18:45 31° NNE visible
17 Aug 6.0 20:17:58 10° WSW 20:53:23 54° NW 21:05:03 10° NE visible
17 Aug 5.2 23:43:32 10° WNW 23:56:27 29° N 00:01:45 11° ENE visible
18 Aug 4.8 02:49:31 10° NW 02:52:06 19° NW 02:52:06 19° NW visible
18 Aug 5.6 22:13:48 10° WNW 22:34:15 34° NNW 22:42:00 10° NE visible
19 Aug 4.1 01:27:27 10° NW 01:34:56 38° N 01:34:56 38° N visible
19 Aug 5.9 20:40:36 10° WSW 21:11:42 46° NNW 21:22:15 10° NE visible
20 Aug 4.7 00:03:27 10° NW 00:14:43 30° N 00:17:38 21° NE visible
20 Aug 5.3 03:07:42 10° NW 03:07:57 11° WNW 03:07:57 11° WNW visible
20 Aug 5.4 22:35:25 10° WNW 22:52:20 31° N 22:59:03 10° NE visible
21 Aug 4.4 01:45:09 10° NW 01:50:27 32° NW 01:50:27 32° NW visible
21 Aug 5.8 21:02:46 10° W 21:29:20 40° NNW 21:38:45 10° NE visible
22 Aug 4.2 00:21:46 10° NW 00:32:02 35° NNE 00:32:49 33° NNE visible
22 Aug 5.1 22:55:14 10° WNW 23:09:34 30° N 23:15:01 12° ENE visible
23 Aug 4.9 02:02:00 10° NW 02:05:17 22° NW 02:05:17 22° NW visible
23 Aug 5.6 21:23:54 10° W 21:46:17 36° NNW 21:54:34 10° NE visible
24 Aug 4.1 00:38:43 10° NW 00:47:19 42° N 00:47:19 42° N visible
24 Aug 4.7 23:13:18 10° NW 23:25:55 32° N 23:29:12 21° NE visible
25 Aug 5.3 02:18:13 10° NW 02:19:26 13° WNW 02:19:26 13° WNW visible
25 Aug 5.4 21:43:34 10° WNW 22:02:27 33° N 22:09:42 10° NE visible
